Location: Umburanas
(4.5000°S, 37.9667°W)
Time: 20:37:29
(UTC+00:00)

Cosmos 2360 Rocket - Pass Details

Date: 19 November 2019
Orbit: 832 x 847 km, 71.0° (Epoch: 09 December)

Event Time Altitude Azimuth Distance (km) Brightness Sun altitude
Rises 20:36:13 0° 184° (S) 3,380 5.7 -2.9°
Reaches altitude 10° 20:38:46 10° 177° (S) 2,445 4.9 -3.5°
Maximum altitude 20:44:04 44° 106° (ESE) 1,143 2.6 -4.8°
Drops below altitude 10° 20:49:22 10° 35° (NE) 2,440 4.1 -6.0°
Sets 20:51:54 0° 28° (NNE) 3,373 4.9 -6.6°
